TIME,DELAY(SENSOR),PRES,T(CTD),SAL,OXYGEN,RAWTEMP,T(OPTODE),TCPHASE,FLUOR,BETA(BETA700),BETA(BETA412),BETA(BETA440),CDOM,C(CSC),ED(ED411.90),ED(ED443.80),ED(ED489.40),ED(ED554.70),LU(LU412.20),LU(LU443.80),LU(LU489.40),LU(LU555.00),COMP,TILTX,TILTX(TILTY),CHECK
1350487198,5805,496.6199951171875000,17.0926990509033200,36.3851013183593750,224.6038970947265600,199.7799987792968800,17.0883808135986330,32.4315185546875000,49,94,54,79,54,633,2147481609,2147767204,2147559058,2147795968,2147315145,2147477083,2147710317,2148242112,1702,7,13,47728
1350487327,5803,484.7699890136719000,17.2569999694824220,36.4157981872558600,225.9906005859375000,194.2579040527343800,17.2563495635986330,32.2847900390625000,49,95,54,80,53,634,2147484553,2147769499,2147559862,2147797129,2147317622,2147478272,2147711844,2148245814,1102,6,12,44185
1350487442,5804,474.2500000000000000,17.3908004760742200,36.4422988891601560,227.9152984619140600,190.0251007080078000,17.3851203918457030,32.1295089721679700,50,94,54,80,53,635,2147489426,2147767890,2147558985,2147797238,2147315931,2147481709,2147714249,2148244324,667,7,13,44302
1350487559,5805,463.3999938964844000,17.4638004302978500,36.4570999145507800,229.5455017089843800,187.3533935546875000,17.4664192199707030,32.0111999511718750,49,95,53,79,53,634,2147482432,2147763684,2147557961,2147796096,2147315026,2147481014,2147712530,2148247305,304,7,13,11410
1350487686,5804,451.6199951171875000,17.5489997863769530,36.4734001159668000,231.2447967529297000,184.7256927490234400,17.5463695526123050,31.8914299011230470,49,95,55,79,52,634,2147487826,2147766537,2147558153,2147795364,2147315200,2147483291,2147711149,2148241033,3519,7,13,21930
1350487813,5806,439.9400024414062500,17.6418991088867200,36.4911003112793000,232.2532043457031200,181.5426940917968800,17.6432399749755860,31.7987709045410160,50,95,53,80,53,639,2147485878,2147768109,2147557659,2147798418,2147313782,2147480438,2147712237,2148246345,2603,6,13,57329
1350487930,5802,429.4700012207031000,17.7119007110595700,36.5051994323730500,233.8096008300781200,179.1867065429687500,17.7149505615234380,31.6907291412353500,49,95,53,80,52,641,2147488393,2147762797,2147558619,2147793060,2147315995,2147480320,2147711515,2148244352,1613,7,13,1492
1350488057,5805,418.2500000000000000,17.7812995910644530,36.5167007446289060,234.8596954345703000,177.0406951904297000,17.7802696228027340,31.6111106872558600,50,96,55,80,52,643,2147487808,2147763520,2147556114,2147795611,2147315017,2147476397,2147709586,2148242285,1512,7,13,9337
1350488186,5800,407.1700134277344000,17.8318004608154300,36.5261001586914060,235.6208953857422000,175.4324035644531200,17.8292293548584000,31.5525703430175780,50,95,54,80,53,644,2147490358,2147764297,2147556150,2147792320,2147313462,2147480795,2147708909,2148246601,1216,7,13,30569
1350488313,5802,396.2500000000000000,17.8906993865966800,36.5368995666503900,236.6304931640625000,173.4886016845703000,17.8884105682373050,31.4779090881347660,49,94,55,80,53,648,2147486994,2147765796,2147556882,2147793426,2147314230,2147482166,2147709129,2148248521,1063,7,13,62496
1350488440,5805,385.3999938964844000,17.9372005462646500,36.5419006347656250,236.4942932128906200,171.9931030273437500,17.9339408874511720,31.4642791748046880,49,95,55,78,53,648,2147492525,2147761673,2147556470,2147794797,2147315309,2147484242,2147707218,2148242285,514,7,12,583
1350488569,5805,374.1700134277344000,18.0049991607666000,36.5530014038085940,236.1311950683593800,169.7120971679687500,18.0034008026123050,31.4510192871093750,50,95,53,80,54,648,2147484562,2147767250,2147559561,2147791305,2147310189,2147475300,2147706148,2148241408,652,6,13,38125
1350488696,5804,363.2799987792969000,18.0349998474121100,36.5582008361816400,236.2234039306640600,168.7436981201172000,18.0328807830810550,31.4333305358886720,50,95,54,80,53,652,2147486665,2147762249,2147558857,2147790317,2147317952,2147483309,2147705536,2148244105,3413,7,12,45040
1350488825,5804,352.1400146484375000,18.0928993225097660,36.5644989013671900,235.7052001953125000,166.7998046875000000,18.0920906066894530,31.4321193695068360,50,95,54,80,54,654,2147488155,2147766445,2147560832,2147793737,2147315026,2147483337,2147711003,2148239881,2361,7,13,38840
1350488952,5804,341.3699951171875000,18.1588001251220700,36.5718994140625000,235.0935058593750000,164.7350006103515600,18.1549797058105470,31.4338607788085940,50,94,54,80,52,658,2147489005,2147764964,2147560813,2147792822,2147307547,2147478144,2147709357,2148243163,1901,7,13,12040
1350489079,5800,330.6499938964844000,18.2138004302978500,36.5782012939453100,234.5635070800781200,162.9635009765625000,18.2089290618896500,31.4354190826416000,50,95,53,81,54,658,2147494875,2147764818,2147561947,2147790427,2147314432,2147481380,2147715483,2148243053,2330,7,12,63717
1350489220,5803,319.0899963378906000,18.2758998870849600,36.5840988159179700,233.7686004638672000,160.9423065185547000,18.2705097198486330,31.4467105865478500,50,95,53,80,53,660,2147491821,2147765604,2147565284,2147789558,2147315876,2147485120,2147713563,2148241325,2438,7,12,23656
1350489347,5802,308.9899902343750000,18.3071002960205080,36.5872993469238300,233.2229003906250000,159.8513031005859400,18.3037490844726560,31.4584693908691400,50,96,54,79,53,663,2147493513,2147763730,2147568676,2147788946,2147313252,2147484269,2147708827,2148239689,2605,7,13,43733
1350489488,5806,297.9500122070312500,18.3724994659423830,36.5914993286132800,231.8910064697265600,157.6275024414062500,18.3715095520019530,31.4930992126464840,50,96,53,79,54,663,2147493403,2147764205,2147574482,2147792064,2147320932,2147485769,2147722057,2148241298,28,7,12,47931
1350489639,5804,286.7000122070312500,18.4498996734619140,36.5982017517089840,230.4756011962890600,155.1405944824218800,18.4472999572753900,31.5290794372558600,50,96,55,80,52,665,2147492050,2147767268,2147579894,2147788845,2147310317,2147486299,2147721554,2148242212,2591,7,12,44153
1350489810,5804,272.7500000000000000,18.6037998199462900,36.6100006103515600,228.7852935791015600,149.6903991699218800,18.6134300231933600,31.5391693115234380,49,96,55,81,52,670,2147489289,2147769261,2147588763,2147792832,2147318070,2147489920,2147723474,2148242880,2793,7,13,53560
1350489925,5805,261.6499938964844000,18.7143001556396500,36.6142005920410160,227.5007019042968800,146.5357971191406200,18.7096099853515620,31.5606498718261720,50,95,54,80,52,668,2147490642,2147775442,2147603785,2147792484,2147313755,2147489581,2147728795,2148244214,2409,7,12,13245
1350490040,5803,250.5099945068359400,18.8271007537841800,36.6152992248535160,227.3484039306640600,142.8054046630859400,18.8233795166015620,31.5179405212402340,50,95,53,80,52,666,2147494400,2147781156,2147620736,2147790546,2147308690,2147496182,2147742518,2148240484,2577,7,13,13011
1350490157,5804,239.2200012207031200,18.9137001037597660,36.6108016967773440,228.6430053710937500,139.8957977294922000,18.9121398925781250,31.4151191711425780,50,95,55,81,54,671,2147493632,2147784292,2147640338,2147792420,2147315958,2147496356,2147755867,2148242779,2751,7,12,20848
1350490272,5803,228.1499938964843800,19.0513992309570300,36.6069984436035160,230.9196014404297000,135.2888946533203000,19.0527191162109380,31.2419109344482420,50,95,54,80,53,671,2147496256,2147798080,2147680374,2147793097,2147314020,2147504576,2147775606,2148241938,1573,7,12,1234
1350490387,5801,217.0599975585937500,19.1371002197265620,36.5974006652832000,236.6369934082031200,132.5121002197265600,19.1374702453613280,30.9312400817871100,50,94,54,80,51,676,2147495049,2147813924,2147728466,2147789531,2147317531,2147512137,2147804571,2148245357,1567,7,12,53480
1350490504,5805,205.8899993896484400,19.2336997985839840,36.5898017883300800,242.3459930419922000,129.4705047607422000,19.2303295135498050,30.6253700256347660,50,94,53,79,53,676,2147499099,2147836306,2147784347,2147792265,2147305874,2147530368,2147837321,2148247744,1621,7,13,35173
1350490595,5803,197.4400024414062500,19.2695999145507800,36.5783004760742200,246.3294982910156200,128.2149963378906200,19.2686691284179700,30.4277095794677730,50,97,55,81,52,676,2147499053,2147840018,2147777261,2147788672,2147312128,2147533101,2147832466,2148244397,1900,7,12,39940
1350490650,5802,192.4700012207031200,19.2905006408691400,36.5783004760742200,247.3598022460937500,127.5969009399414000,19.2875404357910160,30.3735599517822270,49,94,54,80,52,678,2147503259,2147860205,2147837741,2147787803,2147312237,2147545627,2147871670,2148244489,2206,7,12,41626
1350490705,5804,187.5700073242187500,19.3078002929687500,36.5750007629394500,248.2462005615234400,126.8171997070312500,19.3113594055175780,30.3237705230712900,50,96,54,82,52,679,2147504804,2147864786,2147855085,2147791689,2147312685,2147550134,2147879424,2148247762,2359,7,12,9105
1350490780,5802,181.5200042724609400,19.3598003387451170,36.5784988403320300,248.2254943847656200,125.2191009521484400,19.3601703643798830,30.3040790557861330,50,97,54,80,52,676,2147505856,2147853220,2147811931,2147790646,2147314989,2147547885,2147852333,2148248256,1814,7,13,13439
1350490835,5805,177.5399932861328000,19.3813991546630860,36.5803985595703100,248.0832061767578000,124.4084014892578100,19.3849296569824220,30.2997303009033200,50,99,54,80,52,677,2147511616,2147905499,2147959707,2147790738,2147313755,2147573723,2147939858,2148249106,1566,7,12,54718
1350490890,5804,173.6499938964843800,19.4083995819091800,36.5792007446289060,247.8312988281250000,123.7043991088867200,19.4064407348632800,30.3017005920410160,51,101,53,80,53,678,2147513490,2147917129,2147984585,2147790537,2147316269,2147584923,2147951990,2148252800,1394,7,12,55001
1350490945,5802,169.8200073242187500,19.4354991912841800,36.5806007385253900,247.6746978759765600,122.2779998779296900,19.4500102996826170,30.2901897430419920,52,99,54,80,52,679,2147516379,2147925485,2148002971,2147788973,2147313069,2147587035,2147956214,2148251099,1225,7,12,19092
1350491000,5803,166.1499938964843800,19.4846000671386720,36.5852012634277340,247.3619995117187500,121.2535018920898400,19.4813194274902340,30.2908592224121100,53,99,54,80,52,680,2147522176,2147953993,2148063890,2147788982,2147329261,2147605979,2147991387,2148253202,1138,7,12,56358
1350491090,5804,160.6000061035156200,19.5743007659912100,36.5928993225097660,247.0258941650390600,118.2757034301757800,19.5723209381103500,30.2672595977783200,53,101,54,81,54,680,2147532187,2147970843,2148092763,2147790464,2147321435,2147609472,2148001216,2148253504,863,7,12,40755
1350491169,5804,156.6300048828125000,19.6452999114990230,36.6016006469726560,246.9389038085937500,115.8452987670898400,19.6466102600097660,30.2395191192626950,50,95,53,81,52,680,2147529737,2147964160,2148061312,2147790061,2147329600,2147604361,2147977252,2148252626,683,7,12,61537
1350491248,5804,152.7100067138672000,19.7110004425048830,36.6058006286621100,247.4550018310547000,113.8650970458984400,19.7071495056152340,30.1908607482910160,51,97,53,80,53,680,2147545691,2148033206,2148222628,2147788324,2147328329,2147646235,2148074203,2148260498,635,7,13,7193
1350491339,5806,148.3699951171875000,19.8111000061035160,36.6157989501953100,247.7189941406250000,110.7491989135742200,19.8024406433105470,30.1386508941650400,52,99,54,80,53,683,2147591826,2148234898,2148754157,2147792886,2147350838,2147767552,2148355986,2148275684,606,7,12,5362
1350491420,5806,144.6900024414062500,19.9388008117675780,36.6259994506835940,246.8175964355468800,106.7034988403320300,19.9262104034423830,30.1264991760253900,54,101,53,82,52,683,2147612004,2148334006,2148970011,2147795282,2147354742,2147814253,2148460818,2148281197,340,7,12,60819
1350491511,5804,140.6699981689453000,20.1473007202148440,36.6626014709472660,244.9485931396484400,100.7296981811523400,20.1090507507324220,30.1332702636718750,57,105,54,80,53,680,2147642258,2148428361,2149182592,2147796388,2147368064,2147866249,2148560941,2148286043,177,7,13,6539
1350491602,5801,136.7799987792968800,20.2043991088867200,36.6741981506347660,241.1009979248047000,97.7790069580078100,20.1994094848632800,30.2694702148437500,57,103,54,82,53,680,2147681609,2148541760,2149406838,2147796516,2147383414,2147920612,2148665316,2148292233,490,7,12,2276
1350491693,5804,132.8500061035156200,20.3024997711181640,36.6831016540527340,239.7622985839843800,94.7646636962890600,20.2917499542236330,30.2921104431152340,60,106,53,82,54,685,2147728987,2148685897,2149682157,2147799085,2147404946,2147994587,2148790985,2148305810,923,7,12,43280
1350491786,5805,128.8500061035156200,20.3356990814209000,36.6890983581543000,238.6582031250000000,93.5585327148437500,20.3286991119384770,30.3273296356201170,60,107,53,80,52,691,2147794724,2148868022,2150043300,2147805641,2147432054,2148090322,2148959789,2148314916,976,7,12,53
1350491877,5803,124.8899993896484400,20.4022998809814450,36.6920013427734400,238.2073974609375000,91.3489532470703100,20.3964195251464840,30.3195304870605470,62,106,55,82,52,689,2147876150,2149068370,2150402523,2147809618,2147464054,2148180352,2149114843,2148330477,999,7,12,26602
1350491980,5805,120.9599990844726600,20.5060005187988280,36.6848983764648440,239.6324005126953000,88.3549499511718800,20.4881992340087900,30.2150897979736330,62,104,54,81,53,688,2147946486,2149217865,2150632804,2147814107,2147499126,2148253202,2149218276,2148337773,513,7,12,58765
1350492109,5805,117.1999969482421900,20.6355991363525400,36.6878013610839840,238.8724975585937500,84.0761337280273400,20.6194190979003900,30.1949901580810550,60,104,54,81,53,696,2148051638,2149454738,2151048045,2147819510,2147542299,2148367497,2149407835,2148351597,630,7,12,26018
1350492272,5805,113.2600021362304700,20.7476997375488280,36.6898002624511700,237.0088958740234400,80.3204269409179700,20.7346591949462900,30.2328090667724600,59,105,55,82,53,695,2148172251,2149678930,2151439021,2147827593,2147593883,2148494848,2149613522,2148368704,746,7,12,17878
1350492419,5806,108.8600006103515600,20.8719005584716800,36.6932983398437500,233.5569000244140600,76.1980972290039000,20.8612003326416000,30.3413105010986330,59,107,55,82,52,699,2148446902,2150272539,2152484141,2147850377,2147696640,2148787227,2150109842,2148410267,394,7,13,30919
1350492522,5801,104.7900009155273400,20.9430007934570300,36.6936988830566400,233.0942993164062500,73.2344894409179700,20.9522209167480470,30.3248691558837900,62,108,54,82,53,697,2148753627,2150862345,2153448420,2147870473,2147809124,2149059328,2150527789,2148446948,145,7,12,37612
1350492637,5805,100.9199981689453100,21.0664997100830080,36.6982002258300800,231.8983001708984400,69.7240676879882800,21.0600700378417970,30.3363800048828120,62,108,54,82,52,700,2149114322,2151450880,2154304347,2147897526,2147948214,2149330797,2150923392,2148478866,6,7,12,11142
1350492715,5805,97.8799972534179700,21.1898994445800780,36.6916007995605500,234.2872924804687500,62.7216110229492200,21.2753696441650400,30.1332397460937500,64,111,54,82,54,699,2149491812,2152041334,2155194230,2147928585,2148089142,2149606473,2151328064,2148517824,3490,7,12,4476
1350492770,5805,95.4599990844726600,21.4102001190185550,36.7103004455566400,234.7790069580078000,59.2345008850097660,21.3826599121093750,30.0656604766845700,67,113,54,83,52,698,2149827291,2152584338,2156061174,2147957814,2148217243,2149850102,2151692105,2148550464,439,8,12,45584
1350492825,5804,93.1500015258789000,21.4845008850097660,36.7169990539550800,233.8126983642578000,56.0088996887207000,21.4819507598876950,30.0695495605468750,68,114,54,81,52,694,2150175680,2153076964,2156767204,2147988041,2148351497,2150081069,2152061659,2148584539,839,6,12,51849
1350492880,5805,90.8600006103515600,21.6774997711181640,36.7233009338378900,230.6678924560547000,50.0227699279785160,21.6663398742675780,30.1413497924804700,72,114,55,81,53,697,2150620086,2153780626,2157849691,2148033380,2148518784,2150364489,2152449956,2148625618,453,7,12,16769
1350492935,5805,88.8000030517578100,21.8670005798339840,36.7323989868164060,228.6188964843750000,44.5037918090820300,21.8364791870117200,30.1688594818115230,72,113,54,83,52,698,2151057828,2154412169,2158751670,2148071908,2148675712,2150635730,2152834934,2148661970,267,7,12,38643
1350492990,5801,87.0000000000000000,21.9027996063232420,36.7252998352050800,228.4844970703125000,42.7619590759277340,21.8902091979980470,30.1528091430664060,73,115,55,85,52,697,2151503003,2155056338,2159669211,2148122642,2148818048,2150860141,2153151899,2148697965,3356,7,12,56652
1350493069,5804,84.1500015258789000,22.0615005493164060,36.7341995239257800,227.4660034179687500,37.3285408020019500,22.0578899383544920,30.1323204040527340,77,116,55,83,51,698,2152268635,2156033152,2160930121,2148193078,2149085659,2151223131,2153678518,2148762313,2546,7,12,65252
1350493124,5807,81.6900024414062500,22.1851005554199220,36.7420997619628900,226.8766021728515600,33.7637405395507800,22.1679897308349600,30.1150093078613280,79,116,54,83,52,696,2153325330,2157496429,2163022756,2148301531,2149450066,2151784484,2154490779,2148857929,2045,7,12,3151
1350493179,5803,79.3099975585937500,22.2728996276855470,36.7529983520507800,225.2731018066406200,30.4316196441650400,22.2709598541259770,30.1501998901367200,80,117,54,84,54,696,2154468891,2158992914,2165067830,2148410852,2149844032,2152380534,2155345728,2148957394,2043,7,13,5441
1350493234,5805,77.0400009155273400,22.6081008911132800,36.7909011840820300,222.2048034667968800,22.5175800323486330,22.5157394409179700,30.1993904113769530,84,120,54,85,53,696,2155041398,2159576941,2165654144,2148483986,2149994806,2152412717,2155247734,2148977216,2050,8,12,45240
1350493289,5804,75.0999984741211000,22.4402008056640620,36.6925010681152340,223.2758941650390600,24.1992301940917970,22.4636993408203120,30.1682090759277340,87,120,54,84,54,695,2155821705,2160395593,2166284178,2148531867,2150200557,2152528530,2155193078,2148996900,1983,7,12,62059
1350493378,5804,71.6800003051757800,22.7541007995605470,36.6957015991210940,228.9972991943359400,16.1279392242431640,22.7136096954345700,29.7884998321533200,95,129,55,86,52,694,2159808649,2165912384,2173741229,2148947593,2151561261,2154578011,2158264082,2149366793,1499,7,12,6881
1350493433,5803,69.2099990844726600,22.9596004486084000,36.7228012084960940,228.8825073242187500,9.1810493469238280,22.9289798736572270,29.7059898376464840,99,131,55,87,52,692,2162279204,2168974326,2177140498,2149189595,2152311478,2155458934,2159354496,2149533613,1643,7,12,19646
1350493488,5803,67.0199966430664000,23.0734996795654300,36.7001991271972660,228.1728057861328000,4.0150427818298340,23.0893192291259770,29.6741008758544920,103,136,56,87,52,693,2165378697,2173051108,2182079826,2149499373,2153303168,2156757970,2161086592,2149778605,1500,7,12,17230
1350493543,5802,65.3000030517578100,23.3337993621826170,36.7090988159179700,228.8386993408203000,-2.7690770626068115,23.3001003265380860,29.5567798614501950,108,131,56,85,53,692,2168031030,2176485101,2186057188,2149784758,2154100589,2157745618,2162225499,2149957888,1004,7,12,676
1350493682,5803,63.2500000000000000,23.4050998687744140,36.6539993286132800,234.9508972167968800,-6.4134478569030760,23.4134502410888670,29.2259197235107420,106,141,54,89,51,687,2171468452,2180482925,2189080411,2149971584,2155043474,2158641929,2162991149,2150100790,210,7,12,42015
1350493761,5804,61.1500015258789060,23.6047000885009770,36.6585998535156250,239.8589019775390600,-11.9230804443359380,23.5849609375000000,28.9347305297851560,98,138,56,89,54,685,2174804562,2184020022,2191411547,2150204132,2156336457,2159979794,2164297517,2150311524,571,7,12,54270
1350493840,5802,59.2599983215332000,23.7819004058837900,36.6525993347168000,237.9819030761718800,-17.5135593414306640,23.7591705322265620,28.9494495391845700,96,138,54,89,52,682,2181795520,2192510884,2200236342,2150857536,2158581485,2162714770,2167512813,2150777947,734,7,12,9558
1350493990,5804,57.5900001525878900,24.0424003601074220,36.6036987304687500,243.9058990478515600,-26.0293807983398440,24.0249195098876950,28.5811405181884770,66,123,55,86,51,691,2184760685,2195359021,2202095094,2151094354,2160098980,2164391862,2169013650,2150989741,318,8,12,5506
1350494105,5804,55.4000015258789060,24.2539005279541000,36.5624008178710940,248.0097045898437500,-32.9433212280273440,24.2410202026367200,28.3185100555419920,63,123,55,86,50,693,2188758518,2198574838,2203776941,2151369691,2162334217,2166741238,2170657353,2151190409,273,7,12,58856
1350494306,5803,53.9300003051757800,24.3444995880126950,36.5639991760253900,249.4272003173828000,-36.7062988281250000,24.3587703704834000,28.2120609283447270,62,119,55,86,51,690,2164482541,2165746139,2164314925,2148751451,2153874532,2154735808,2154919232,2149160448,301,7,12,32305
1350494387,5804,51.7200012207031250,24.5828990936279300,36.5386009216308600,251.0930938720703000,-42.9393806457519500,24.5540199279785160,28.0653800964355470,61,123,55,87,51,689,2180241810,2183933330,2183585206,2150322870,2160195885,2162262665,2162855451,2150234038,2998,8,13,50804
1350494492,5802,49.8100013732910160,24.9048995971679700,36.5107002258300800,252.3556060791015600,-51.6074409484863300,24.8259906768798830,27.9068603515625000,60,118,55,85,50,686,2207902153,2217720402,2221390436,2153913874,2172610276,2178094765,2181132909,2152718738,2918,8,12,65286
1350494633,5805,47.6800003051757800,25.4514007568359380,36.4528999328613300,252.0856018066406200,-67.9834136962890600,25.3412704467773440,27.7189598083496100,59,120,55,87,50,686,2210544228,2219858962,2223047524,2154347428,2174903076,2179875044,2181881819,2152923136,3269,8,12,59656
1350494798,5804,45.8400001525878900,25.5366992950439450,36.4571990966796900,251.3495025634765600,-74.8507308959961000,25.5579490661621100,27.6663398742675780,60,119,55,87,50,685,2202704283,2209700397,2211702125,2153672109,2172179227,2176190848,2177610651,2152465014,378,8,11,64625
1350494938,5803,43.8400001525878900,25.8325996398925780,36.4194984436035160,250.1640014648437500,-80.8281097412109400,25.7468395233154300,27.6431198120117200,60,121,54,88,50,688,2216421961,2225251574,2227778468,2156226203,2180569627,2185554441,2187053942,2153993536,355,8,12,47416
1350495306,5802,41.8899993896484400,26.1811008453369140,36.2214012145996100,244.6629028320312500,-94.5183868408203100,26.1805191040039060,27.7094593048095700,59,115,56,87,49,683,2189649115,2192287149,2191246180,2152308425,2168829138,2170328246,2169487890,2151395136,1157,8,12,8316
1350495637,5803,39.8899993896484400,26.1702003479003900,36.1866989135742200,240.7725982666015600,-94.5631484985351600,26.1819400787353500,27.8766098022460940,55,117,54,84,50,679,2196821357,2200466166,2200250870,2153752996,2176024841,2177527350,2175501385,2152297618,1171,8,12,4463
1350495790,5803,37.9099998474121100,26.1704998016357420,36.1861991882324200,240.3820037841797000,-94.5049209594726600,26.1800994873046880,27.8943901062011720,54,114,54,85,48,680,2200414509,2203912457,2203770240,2154968768,2180943012,2181927286,2178969060,2152927305,1284,8,12,20881
1350495870,5801,35.7700004577636700,26.1690998077392580,36.1847000122070300,240.2324066162109400,-94.3798065185546900,26.1761302947998050,27.9024600982666000,56,114,53,85,51,677,2210292598,2214806829,2215940864,2157883245,2191900443,2192971446,2188454683,2154531090,1158,6,12,14140
1350495915,5804,33.8400001525878900,26.1727008819580080,36.1848983764648440,240.3215026855468800,-94.3670272827148400,26.1757202148437500,27.8986606597900400,55,114,53,84,50,675,2208487917,2211904512,2212341120,2158074889,2192677403,2192714166,2187140242,2154352448,1139,7,11,65390
1350495960,5804,31.8099994659423830,26.1709995269775400,36.1829986572265600,240.1871948242187500,-94.4021530151367200,26.1768398284912100,27.9041099548339840,55,113,55,86,48,674,2210359570,2213318427,2213521956,2159220873,2197216941,2196416411,2189188342,2154805860,1020,8,11,57622
1350496005,5806,29.6900005340576170,26.1732997894287100,36.1837997436523440,240.1997985839843800,-94.5439682006836000,26.1813392639160160,27.9018898010253900,54,115,55,86,49,672,2212413376,2214882907,2215274276,2160930221,2201345353,2199793874,2191485056,2155478217,952,7,12,6829